Vista (821, 693) Station Data

Red Flag Warning: No
Fire Weather Zone: 243
SDGE Region: North Coast
Lat/Lon: 33.205/-117.254

Observations

Time Wind Speed/Gust Temp(F) RH Fuel Moist Fuel Temp(F) Dewpt(F) Tmax(F) Tmin(F) Accum Precip 10-min Precip SL Press(mb)
3/29 8:00am 54 0 G 1 54° 66% - - 43° 55.2° 47.3° - - -
3/29 7:50am 121 0 G 1 54° 66% - - 43° 55.2° 47.3° - - -
3/29 7:40am 34 0 G 1 52° 68% - - 42° 55.2° 47.3° - - -
3/29 7:30am 228 0 G 1 51° 72% - - 42° 55.2° 47.3° - - -
3/29 7:20am 329 1 G 2 49° 76% - - 42° 55.2° 47.3° - - -
3/29 7:10am 56 1 G 2 48° 77% - - 41° 55.2° 47.3° - - -
3/29 7:00am 37 1 G 2 48° 78% - - 41° 55.2° 47.3° - - -
3/29 6:50am 96 0 G 1 48° 78% - - 41° 55.2° 47.4° - - -
3/29 6:40am 115 1 G 2 48° 77% - - 41° 55.2° 47.4° - - -
3/29 6:30am 66 1 G 1 48° 76% - - 41° 55.2° 47.4° - - -
3/29 6:20am 39 1 G 2 48° 75% - - 41° 55.2° 47.5° - - -
3/29 6:10am 333 1 G 4 48° 75% - - 41° 55.2° 48.1° - - -
3/29 6:00am 52 0 G 1 49° 75% - - 41° 55.2° 48.3° - - -
3/29 5:50am 69 1 G 2 49° 73% - - 41° 55.2° 48.3° - - -
3/29 5:40am 28 1 G 3 49° 73% - - 41° 55.2° 48.3° - - -
3/29 5:30am 353 1 G 3 49° 73% - - 41° 55.2° 48.3° - - -
3/29 5:20am 259 1 G 2 49° 74% - - 41° 55.2° 48.3° - - -
3/29 5:10am 242 1 G 3 49° 77% - - 42° 55.2° 48.3° - - -
3/29 5:00am 294 1 G 2 49° 77% - - 42° 55.2° 48.3° - - -
3/29 4:50am 217 1 G 2 49° 76% - - 42° 55.2° 48.7° - - -
3/29 4:40am 295 0 G 1 49° 75% - - 42° 55.2° 48.9° - - -
3/29 4:30am 66 1 G 1 50° 74% - - 42° 55.2° 49.5° - - -
3/29 4:20am 265 0 G 1 50° 73% - - 42° 55.2° 49.5° - - -
3/29 4:10am 22 0 G 1 51° 71% - - 42° 55.2° 49.5° - - -
3/29 4:00am 42 1 G 1 51° 72% - - 42° 55.2° 49.5° - - -
3/29 3:50am 107 1 G 2 51° 71% - - 42° 55.2° 49.5° - - -
3/29 3:40am 103 0 G 2 51° 70% - - 42° 55.2° 49.5° - - -
3/29 3:30am 107 1 G 2 51° 70% - - 42° 55.2° 49.5° - - -
3/29 3:20am 77 1 G 3 51° 71% - - 42° 55.2° 49.5° - - -
3/29 3:10am 32 1 G 2 51° 72% - - 42° 55.2° 49.5° - - -
3/29 3:00am 37 0 G 2 50° 73% - - 42° 55.2° 49.6° - - -
3/29 2:50am 5 0 G 2 51° 72% - - 42° 55.2° 50.1° - - -
3/29 2:40am 126 1 G 2 51° 72% - - 42° 55.2° 50.1° - - -
3/29 2:30am 80 1 G 2 51° 72% - - 42° 55.2° 50.1° - - -
3/29 2:20am 76 1 G 2 51° 73% - - 42° 55.2° 50.1° - - -
3/29 2:10am 68 1 G 2 51° 71% - - 42° 55.2° 50.5° - - -
3/29 2:00am 96 1 G 2 52° 71% - - 42° 55.2° 51° - - -
3/29 1:50am 9 1 G 1 51° 72% - - 43° 55.2° 51° - - -
3/29 1:40am 342 0 G 1 52° 72% - - 43° 55.2° 51.1° - - -
3/29 1:30am 64 1 G 2 52° 71% - - 43° 55.2° 51.7° - - -
3/29 1:20am 107 0 G 1 53° 70% - - 43° 55.2° 52.1° - - -
3/29 1:10am 77 0 G 1 53° 69% - - 43° 55.2° 52.3° - - -
3/29 1:00am 36 0 G 1 53° 70% - - 43° 55.2° 52.3° - - -
3/29 12:50am 99 0 G 1 53° 69% - - 43° 55.2° 53° - - -
3/29 12:40am 45 1 G 2 54° 68% - - 43° 55.2° 53.2° - - -
3/29 12:30am 308 0 G 1 54° 69% - - 44° 55.2° 53.5° - - -
3/29 12:20am 71 0 G 1 54° 68% - - 44° 55.2° 54° - - -
3/29 12:10am 77 1 G 2 55° 68% - - 45° 55.2° 54.2° - - -
3/29 12:00am 32 1 G 2 54° 70% - - 45° 70.8° 47.1° - - -
3/28 11:50pm 329 0 G 1 54° 70% - - 45° 70.8° 47.1° - - -
3/28 11:40pm 2 1 G 2 55° 68% - - 44° 70.8° 47.1° - - -
3/28 11:30pm 41 1 G 2 55° 68% - - 44° 70.8° 47.1° - - -
3/28 11:20pm 112 1 G 2 55° 68% - - 45° 70.8° 47.1° - - -
3/28 11:10pm 191 0 G 1 56° 71% - - 46° 70.8° 47.1° - - -
3/28 11:00pm 205 1 G 2 56° 70% - - 46° 70.8° 47.1° - - -
3/28 10:50pm 34 1 G 1 57° 66% - - 46° 70.8° 47.1° - - -
3/28 10:40pm 123 0 G 1 57° 66% - - 46° 70.8° 47.1° - - -
3/28 10:30pm 56 0 G 1 57° 67% - - 46° 70.8° 47.1° - - -
3/28 10:20pm 85 1 G 2 57° 69% - - 47° 70.8° 47.1° - - -
3/28 10:10pm 207 0 G 1 57° 69% - - 47° 70.8° 47.1° - - -
3/28 10:00pm 201 0 G 1 58° 67% - - 47° 70.8° 47.1° - - -
3/28 9:50pm 218 0 G 1 58° 66% - - 47° 70.8° 47.1° - - -
3/28 9:40pm 0 0 G 0 59° 64% - - 46° 70.8° 47.1° - - -
3/28 9:30pm 0 0 G 0 59° 62% - - 46° 70.8° 47.1° - - -
3/28 9:20pm 183 1 G 2 59° 64% - - 47° 70.8° 47.1° - - -
3/28 9:10pm 91 0 G 1 59° 63% - - 47° 70.8° 47.1° - - -
3/28 9:00pm 148 0 G 1 59° 65% - - 48° 70.8° 47.1° - - -
3/28 8:50pm 118 0 G 2 60° 64% - - 48° 70.8° 47.1° - - -
3/28 8:40pm 171 0 G 2 60° 65% - - 48° 70.8° 47.1° - - -
3/28 8:30pm 166 2 G 3 61° 65% - - 49° 70.8° 47.1° - - -
3/28 8:20pm 172 2 G 4 61° 65% - - 49° 70.8° 47.1° - - -
3/28 8:10pm 198 1 G 4 61° 63% - - 49° 70.8° 47.1° - - -
3/28 8:00pm 211 2 G 5 61° 63% - - 49° 70.8° 47.1° - - -
3/28 7:50pm 188 3 G 5 62° 62% - - 48° 70.8° 47.1° - - -
3/28 7:40pm 185 3 G 5 62° 61% - - 48° 70.8° 47.1° - - -
3/28 7:30pm 183 3 G 6 63° 58% - - 47° 70.8° 47.1° - - -
3/28 7:20pm 217 2 G 5 63° 54% - - 46° 70.8° 47.1° - - -
3/28 7:10pm 244 3 G 6 64° 51% - - 45° 70.8° 47.1° - - -
3/28 7:00pm 216 3 G 6 65° 48% - - 45° 70.8° 47.1° - - -
3/28 6:50pm 206 4 G 7 66° 46% - - 44° 70.8° 47.1° - - -
3/28 6:40pm 219 3 G 9 66° 45% - - 44° 70.8° 47.1° - - -
3/28 6:30pm 246 2 G 6 67° 42% - - 43° 70.8° 47.1° - - -
3/28 6:20pm 226 3 G 7 67° 40% - - 42° 70.8° 47.1° - - -
3/28 6:10pm 255 3 G 6 67° 40% - - 42° 70.8° 47.1° - - -
3/28 6:00pm 238 4 G 10 67° 40% - - 42° 70.8° 47.1° - - -
3/28 5:50pm 224 5 G 10 67° 41% - - 43° 70.8° 47.1° - - -
3/28 5:40pm 249 4 G 9 68° 41% - - 43° 70.8° 47.1° - - -
3/28 5:30pm 254 4 G 8 68° 42% - - 44° 70.8° 47.1° - - -
3/28 5:20pm 258 4 G 10 68° 43% - - 44° 70.8° 47.1° - - -
3/28 5:10pm 256 4 G 9 67° 44% - - 45° 70.8° 47.1° - - -
3/28 5:00pm 259 5 G 10 67° 46% - - 46° 70.8° 47.1° - - -
3/28 4:50pm 255 5 G 11 67° 45% - - 45° 70.8° 47.1° - - -
3/28 4:40pm 251 5 G 9 67° 46% - - 46° 70.8° 47.1° - - -
3/28 4:30pm 276 6 G 12 67° 44% - - 45° 70.8° 47.1° - - -
3/28 4:20pm 276 4 G 8 68° 44% - - 45° 70.8° 47.1° - - -
3/28 4:10pm 270 6 G 11 68° 44% - - 45° 70.8° 47.1° - - -
3/28 4:00pm 250 4 G 10 69° 43% - - 46° 70.8° 47.1° - - -
3/28 3:50pm 244 5 G 11 68° 38% - - 42° 70.8° 47.1° - - -
3/28 3:40pm 237 5 G 10 69° 41% - - 44° 70.8° 47.1° - - -
3/28 3:30pm 239 5 G 12 68° 40% - - 43° 70.8° 47.1° - - -
3/28 3:20pm 251 5 G 12 69° 40% - - 44° 70.8° 47.1° - - -
3/28 3:10pm 267 5 G 11 68° 40% - - 43° 70.8° 47.1° - - -
3/28 3:00pm 270 6 G 11 68° 41% - - 44° 70.8° 47.1° - - -
3/28 2:50pm 241 5 G 11 69° 45% - - 46° 70.8° 47.1° - - -
3/28 2:40pm 240 5 G 10 69° 48% - - 48° 70.8° 47.1° - - -
3/28 2:30pm 277 6 G 11 69° 48% - - 48° 70.8° 47.1° - - -
3/28 2:20pm 258 6 G 11 69° 46% - - 47° 70.8° 47.1° - - -
3/28 2:10pm 229 5 G 10 69° 47% - - 48° 70.8° 47.1° - - -
3/28 2:00pm 233 5 G 11 70° 48% - - 49° 70.8° 47.1° - - -
3/28 1:50pm 247 5 G 10 69° 46% - - 47° 70.1° 47.1° - - -
3/28 1:40pm 244 5 G 10 69° 45% - - 47° 70.1° 47.1° - - -
3/28 1:30pm 226 5 G 11 69° 46% - - 48° 70.1° 47.1° - - -
3/28 1:20pm 250 4 G 8 69° 48% - - 49° 70.1° 47.1° - - -
3/28 1:10pm 228 5 G 10 68° 50% - - 49° 69.8° 47.1° - - -
3/28 1:00pm 237 5 G 9 67° 52% - - 49° 69.8° 47.1° - - -
3/28 12:50pm 269 5 G 11 67° 54% - - 49° 69.8° 47.1° - - -
3/28 12:40pm 275 4 G 10 67° 53% - - 49° 69.8° 47.1° - - -
3/28 12:30pm 286 5 G 8 67° 49% - - 47° 69.8° 47.1° - - -
3/28 12:20pm 286 6 G 11 67° 48% - - 47° 69.8° 47.1° - - -
3/28 12:10pm 236 5 G 13 66° 57% - - 51° 69.8° 47.1° - - -
3/28 12:00pm 258 5 G 13 66° 57% - - 50° 69.8° 47.1° - - -
3/28 11:50am 247 6 G 15 65° 60% - - 51° 69.8° 47.1° - - -
3/28 11:40am 236 5 G 14 67° 54% - - 50° 69.8° 47.1° - - -
3/28 11:30am 243 5 G 11 66° 53% - - 48° 69.8° 47.1° - - -
3/28 11:20am 249 5 G 12 68° 42% - - 44° 69.8° 47.1° - - -
3/28 11:10am 293 5 G 10 67° 40% - - 42° 69.8° 47.1° - - -
3/28 11:00am 294 5 G 9 68° 40% - - 42° 69.8° 47.1° - - -
3/28 10:50am 257 4 G 8 67° 44% - - 45° 69.8° 47.1° - - -
3/28 10:40am 351 6 G 11 69° 28% - - 34° 69.8° 47.1° - - -
3/28 10:30am 4 6 G 12 68° 28% - - 34° 69.1° 47.1° - - -
3/28 10:20am 5 6 G 12 68° 29% - - 35° 68.2° 47.1° - - -
3/28 10:10am 22 5 G 14 66° 34% - - 37° 67.4° 47.1° - - -
3/28 10:00am 35 4 G 8 65° 42% - - 41° 66.2° 47.1° - - -
3/28 9:50am 45 4 G 10 64° 44% - - 42° 64.2° 47.1° - - -
3/28 9:40am 26 2 G 4 63° 47% - - 42° 64.1° 47.1° - - -
3/28 9:30am 33 3 G 6 61° 51% - - 43° 62.2° 47.1° - - -
3/28 9:20am 41 2 G 5 60° 59% - - 45° 61° 47.1° - - -
3/28 9:10am 168 2 G 4 58° 65% - - 47° 59.3° 47.1° - - -
3/28 9:00am 223 2 G 4 57° 70% - - 47° 57.3° 47.1° - - -
3/28 8:50am 227 2 G 4 56° 72% - - 47° 57.1° 47.1° - - -
3/28 8:40am 181 1 G 3 56° 74% - - 48° 56.8° 47.1° - - -
3/28 8:30am 262 0 G 2 54° 77% - - 47° 55.4° 47.1° - - -
3/28 8:20am 351 1 G 3 52° 81% - - 46° 54.2° 47.1° - - -
3/28 8:10am 339 3 G 6 53° 82% - - 47° 54.2° 47.1° - - -
3/28 8:00am 328 1 G 3 53° 84% - - 48° 54.2° 47.1° - - -
3/28 7:50am 300 0 G 1 53° 84% - - 48° 54.2° 47.1° - - -
3/28 7:40am 41 0 G 1 51° 88% - - 48° 54.2° 47.1° - - -
3/28 7:30am 360 1 G 2 49° 91% - - 47° 54.2° 47.1° - - -
3/28 7:20am 2 1 G 2 48° 92% - - 46° 54.2° 47.1° - - -
3/28 7:10am 314 0 G 2 48° 93% - - 46° 54.2° 47.1° - - -
3/28 7:00am 264 1 G 3 48° 93% - - 46° 54.2° 47.1° - - -
3/28 6:50am 179 1 G 3 47° 93% - - 45° 54.2° 47.1° - - -
3/28 6:40am 15 1 G 2 48° 92% - - 46° 54.2° 47.1° - - -
3/28 6:30am 50 1 G 2 48° 92% - - 46° 54.2° 47.4° - - -
3/28 6:20am 51 2 G 3 48° 92% - - 46° 54.2° 47.6° - - -
3/28 6:10am 333 1 G 3 48° 92% - - 46° 54.2° 47.9° - - -
3/28 6:00am 358 0 G 2 48° 92% - - 46° 54.2° 47.9° - - -